MON3379 LEMH-EGBB

Flight info

Callsign MON3379
Flight time 2h 17m
Altitude 34000
Route MEROS N853 LUMAS DCT SOFFY DCT MRM DCT MTL DCT ETREK DCT MADOT DCT MOPEM DCT CACHI DCT AVLON DCT OKRIX DCT BRY DCT CLM DCT KOPOR DCT ABNUR DCT DIMAL DCT ALESO T420 HEMEL
Aircraft A321/M-SDE3FGHIRWY/LB1

Departure

Time 2026-04-20 16:49
Airport Menorca Airport (LEMH)

Arrival

Time 2026-04-20 19:06
Airport Birmingham Airport (EGBB)
Time Latitude Longitude Altitude Speed Heading
2026-04-20 16:18 39.86425 4.22390 287 ft 0 kts 99°
2026-04-20 16:40 39.86426 4.22386 286 ft 3 kts 99°
2026-04-20 16:40 39.86430 4.22353 287 ft 2 kts 99°
2026-04-20 16:41 39.86434 4.22326 290 ft 4 kts 121°
2026-04-20 16:41 39.86449 4.22313 294 ft 3 kts 189°
2026-04-20 16:41 39.86470 4.22318 292 ft 0 kts 189°
2026-04-20 16:43 39.86467 4.22317 294 ft 1 kts 189°
2026-04-20 16:43 39.86432 4.22310 292 ft 10 kts 189°
2026-04-20 16:43 39.86354 4.22293 288 ft 12 kts 189°
2026-04-20 16:44 39.86268 4.22275 288 ft 13 kts 189°
2026-04-20 16:44 39.86197 4.22253 291 ft 8 kts 217°
2026-04-20 16:44 39.86186 4.22189 293 ft 7 kts 278°
2026-04-20 16:44 39.86194 4.22127 297 ft 7 kts 288°
2026-04-20 16:45 39.86254 4.22101 294 ft 11 kts
2026-04-20 16:45 39.86341 4.22120 294 ft 16 kts
2026-04-20 16:45 39.86480 4.22148 295 ft 25 kts
2026-04-20 16:45 39.86659 4.22185 296 ft 26 kts
2026-04-20 16:46 39.86835 4.22221 302 ft 25 kts
2026-04-20 16:46 39.87004 4.22257 302 ft 24 kts
2026-04-20 16:46 39.87158 4.22288 306 ft 18 kts
2026-04-20 16:46 39.87277 4.22312 310 ft 17 kts
2026-04-20 16:47 39.87365 4.22321 313 ft 9 kts 338°
2026-04-20 16:47 39.87391 4.22256 312 ft 9 kts 281°
2026-04-20 16:47 39.87385 4.22158 310 ft 12 kts 247°
2026-04-20 16:47 39.87323 4.22084 310 ft 14 kts 193°
2026-04-20 16:48 39.87205 4.22058 307 ft 32 kts 190°
2026-04-20 16:48 39.86730 4.21962 304 ft 103 kts 189°
2026-04-20 16:48 39.85821 4.21778 304 ft 159 kts 188°
2026-04-20 16:48 39.84684 4.21539 843 ft 163 kts 190°
2026-04-20 16:49 39.83575 4.21287 1593 ft 161 kts 190°
2026-04-20 16:49 39.82456 4.21038 2150 ft 170 kts 189°
2026-04-20 16:49 39.81215 4.20785 2421 ft 189 kts 189°
2026-04-20 16:49 39.79866 4.20513 2730 ft 204 kts 189°
2026-04-20 16:50 39.78411 4.20210 3022 ft 219 kts 189°
2026-04-20 16:50 39.76836 4.19967 3216 ft 240 kts 178°
2026-04-20 16:50 39.75185 4.20611 3534 ft 260 kts 148°
2026-04-20 16:50 39.73906 4.22323 4056 ft 272 kts 120°
2026-04-20 16:51 39.73373 4.24677 4736 ft 276 kts 92°
2026-04-20 16:51 39.73632 4.27142 5429 ft 277 kts 69°
2026-04-20 16:51 39.74586 4.29300 6137 ft 278 kts 49°
2026-04-20 16:51 39.75972 4.31057 6766 ft 281 kts 36°
2026-04-20 16:52 39.77612 4.32481 7373 ft 286 kts 29°
2026-04-20 16:52 39.79344 4.33764 8055 ft 288 kts 28°
2026-04-20 16:52 39.81122 4.34985 8758 ft 289 kts 24°
2026-04-20 16:52 39.82996 4.35922 9480 ft 289 kts
2026-04-20 16:53 39.84989 4.35991 10134 ft 288 kts 347°
2026-04-20 16:53 39.86880 4.35117 10565 ft 297 kts 334°
2026-04-20 16:53 39.88183 4.34338 10659 ft 312 kts 333°
2026-04-20 16:53 39.90213 4.33092 10786 ft 333 kts 333°
2026-04-20 16:54 39.92361 4.31759 11029 ft 348 kts 333°
2026-04-20 16:54 39.94570 4.30393 11554 ft 354 kts 333°
2026-04-20 16:54 39.96775 4.29036 12172 ft 357 kts 333°
2026-04-20 16:54 39.99031 4.27652 12794 ft 360 kts 333°
2026-04-20 16:55 40.01310 4.26262 13398 ft 364 kts 333°
2026-04-20 16:55 40.03709 4.25147 13959 ft 371 kts 346°
2026-04-20 16:55 40.06302 4.24967 14492 ft 379 kts
2026-04-20 16:55 40.08913 4.25601 15044 ft 383 kts
2026-04-20 16:56 40.11529 4.26316 15616 ft 386 kts
2026-04-20 16:56 40.14167 4.27031 16190 ft 388 kts
2026-04-20 16:56 40.16821 4.27743 16744 ft 391 kts
2026-04-20 16:56 40.19500 4.28457 17312 ft 394 kts
2026-04-20 16:57 40.22196 4.29174 17864 ft 397 kts
2026-04-20 16:57 40.24913 4.29899 18394 ft 400 kts
2026-04-20 16:57 40.27644 4.30631 18872 ft 402 kts
2026-04-20 16:57 40.30399 4.31369 19368 ft 405 kts
2026-04-20 16:58 40.33164 4.32112 19859 ft 407 kts
2026-04-20 16:58 40.35953 4.32863 20342 ft 410 kts
2026-04-20 16:58 40.38752 4.33617 20816 ft 412 kts
2026-04-20 16:58 40.41567 4.34375 21281 ft 415 kts
2026-04-20 16:59 40.44404 4.35137 21723 ft 417 kts
2026-04-20 16:59 40.47261 4.35906 22160 ft 420 kts
2026-04-20 16:59 40.50127 4.36676 22590 ft 422 kts
2026-04-20 16:59 40.53015 4.37423 23012 ft 424 kts
2026-04-20 17:00 40.58847 4.38815 23805 ft 428 kts
2026-04-20 17:00 40.61788 4.39491 24145 ft 430 kts
2026-04-20 17:00 40.64746 4.40177 24488 ft 432 kts
2026-04-20 17:01 40.67711 4.40876 24827 ft 435 kts
2026-04-20 17:01 40.70698 4.41590 25162 ft 437 kts
2026-04-20 17:01 40.73692 4.42312 25495 ft 439 kts
2026-04-20 17:01 40.76705 4.43040 25831 ft 441 kts
2026-04-20 17:02 40.79732 4.43772 26161 ft 443 kts
2026-04-20 17:02 40.82769 4.44505 26496 ft 445 kts
2026-04-20 17:02 40.85823 4.45241 26799 ft 447 kts
2026-04-20 17:02 40.88893 4.45980 27104 ft 449 kts
2026-04-20 17:03 40.91976 4.46723 27407 ft 451 kts
2026-04-20 17:03 40.95075 4.47473 27705 ft 453 kts
2026-04-20 17:03 40.98184 4.48230 28005 ft 455 kts
2026-04-20 17:03 41.01267 4.48978 28298 ft 457 kts
2026-04-20 17:04 41.04402 4.49741 28616 ft 459 kts
2026-04-20 17:04 41.07554 4.50507 28917 ft 462 kts
2026-04-20 17:04 41.10722 4.51278 29189 ft 464 kts
2026-04-20 17:04 41.13900 4.52051 29560 ft 464 kts
2026-04-20 17:05 41.17068 4.52822 29988 ft 463 kts
2026-04-20 17:05 41.20231 4.53593 30340 ft 462 kts
2026-04-20 17:05 41.23392 4.54366 30693 ft 461 kts
2026-04-20 17:05 41.26537 4.55137 31054 ft 460 kts
2026-04-20 17:06 41.29680 4.55906 31411 ft 458 kts
2026-04-20 17:06 41.32812 4.56673 31764 ft 457 kts
2026-04-20 17:06 41.35958 4.57447 32121 ft 456 kts
2026-04-20 17:06 41.39071 4.58212 32460 ft 455 kts
2026-04-20 17:07 41.42184 4.58976 32802 ft 454 kts
2026-04-20 17:07 41.45293 4.59740 33134 ft 453 kts
2026-04-20 17:07 41.48347 4.60492 33475 ft 452 kts
2026-04-20 17:07 41.51437 4.61254 33816 ft 451 kts
2026-04-20 17:08 41.54526 4.62014 33953 ft 450 kts
2026-04-20 17:08 41.60667 4.63524 33955 ft 447 kts
2026-04-20 17:09 41.66784 4.65037 33969 ft 447 kts
2026-04-20 17:09 41.72903 4.66572 33972 ft 448 kts
2026-04-20 17:10 41.78926 4.68860 33970 ft 451 kts 12°
2026-04-20 17:10 41.84941 4.71226 33961 ft 450 kts 12°
2026-04-20 17:11 41.90959 4.73582 33968 ft 451 kts 12°
2026-04-20 17:11 41.96988 4.75944 33967 ft 452 kts 12°
2026-04-20 17:12 42.03023 4.78321 33966 ft 452 kts 12°
2026-04-20 17:12 42.09059 4.80703 33965 ft 452 kts 12°
2026-04-20 17:13 42.15106 4.83089 33970 ft 453 kts 12°
2026-04-20 17:13 42.21160 4.85496 33964 ft 454 kts 12°
2026-04-20 17:14 42.27223 4.87915 33960 ft 455 kts 12°
2026-04-20 17:14 42.33293 4.90340 33971 ft 455 kts 12°
2026-04-20 17:15 42.39371 4.92765 33962 ft 455 kts 11°
2026-04-20 17:15 42.45446 4.95188 33961 ft 456 kts 11°
2026-04-20 17:16 42.51524 4.97619 33980 ft 455 kts 11°
2026-04-20 17:16 42.57592 5.00055 33975 ft 454 kts 11°
2026-04-20 17:17 42.63609 5.02476 33967 ft 454 kts 11°
2026-04-20 17:17 42.69649 5.04914 33965 ft 453 kts 11°
2026-04-20 17:18 42.75693 5.07351 33960 ft 453 kts 11°
2026-04-20 17:18 42.81733 5.09791 33958 ft 453 kts 11°
2026-04-20 17:19 42.87768 5.12237 33955 ft 452 kts 11°
2026-04-20 17:19 42.93802 5.14693 33957 ft 452 kts 10°
2026-04-20 17:20 42.99837 5.17146 33954 ft 453 kts 10°
2026-04-20 17:20 43.05877 5.19602 33950 ft 453 kts 10°
2026-04-20 17:21 43.11913 5.22061 33955 ft 453 kts 10°
2026-04-20 17:21 43.17955 5.24531 33945 ft 453 kts 10°
2026-04-20 17:22 43.23995 5.27008 33931 ft 453 kts 10°
2026-04-20 17:22 43.30037 5.29481 33938 ft 453 kts 10°
2026-04-20 17:23 43.36123 5.31276 33940 ft 441 kts 356°
2026-04-20 17:23 43.42071 5.30572 33936 ft 426 kts 339°
2026-04-20 17:24 43.47672 5.28111 33931 ft 422 kts 336°
2026-04-20 17:24 43.53247 5.25570 33937 ft 423 kts 336°
2026-04-20 17:25 43.58834 5.23022 33931 ft 423 kts 336°
2026-04-20 17:25 43.64418 5.20458 33929 ft 423 kts 336°
2026-04-20 17:26 43.70010 5.17891 33933 ft 423 kts 336°
2026-04-20 17:26 43.75601 5.15326 33949 ft 424 kts 336°
2026-04-20 17:27 43.81193 5.12746 33945 ft 424 kts 336°
2026-04-20 17:27 43.86780 5.10158 33943 ft 423 kts 336°
2026-04-20 17:28 43.92372 5.07582 33946 ft 423 kts 336°
2026-04-20 17:28 43.97961 5.04991 33943 ft 424 kts 336°
2026-04-20 17:29 44.03545 5.02383 33939 ft 424 kts 336°
2026-04-20 17:29 44.09135 4.99776 33935 ft 424 kts 336°
2026-04-20 17:30 44.14724 4.97168 33950 ft 423 kts 336°
2026-04-20 17:30 44.20305 4.94561 33950 ft 423 kts 336°
2026-04-20 17:31 44.25880 4.91949 33952 ft 422 kts 336°
2026-04-20 17:31 44.31443 4.89347 33972 ft 421 kts 336°
2026-04-20 17:32 44.36997 4.86742 33988 ft 421 kts 335°
2026-04-20 17:32 44.42545 4.84119 33980 ft 421 kts 335°
2026-04-20 17:33 44.48053 4.81507 33978 ft 421 kts 335°
2026-04-20 17:33 44.53601 4.78874 34005 ft 421 kts 335°
2026-04-20 17:34 44.59369 4.77123 34001 ft 428 kts 345°
2026-04-20 17:34 44.65253 4.75841 33998 ft 427 kts 345°
2026-04-20 17:35 44.71122 4.74547 34006 ft 427 kts 345°
2026-04-20 17:35 44.76987 4.73236 34002 ft 427 kts 345°
2026-04-20 17:36 44.82847 4.71931 33999 ft 426 kts 345°
2026-04-20 17:36 44.88705 4.70618 34003 ft 426 kts 345°
2026-04-20 17:37 44.94564 4.69311 34011 ft 426 kts 345°
2026-04-20 17:37 45.00413 4.68001 34030 ft 425 kts 345°
2026-04-20 17:38 45.06257 4.66689 34029 ft 425 kts 345°
2026-04-20 17:38 45.12099 4.65378 34034 ft 425 kts 345°
2026-04-20 17:39 45.17937 4.64061 34031 ft 425 kts 345°
2026-04-20 17:39 45.23769 4.62739 34025 ft 425 kts 345°
2026-04-20 17:40 45.29614 4.61404 34055 ft 425 kts 344°
2026-04-20 17:40 45.35450 4.60064 34047 ft 424 kts 344°
2026-04-20 17:41 45.41276 4.58724 34050 ft 424 kts 344°
2026-04-20 17:41 45.46122 4.57611 34050 ft 424 kts 345°
2026-04-20 17:42 45.52882 4.56051 34064 ft 423 kts 344°
2026-04-20 17:42 45.58690 4.54717 34058 ft 422 kts 344°
2026-04-20 17:43 45.63550 4.53599 34055 ft 422 kts 344°
2026-04-20 17:43 45.69348 4.52250 34068 ft 422 kts 344°
2026-04-20 17:44 45.75096 4.50904 34063 ft 421 kts 344°
2026-04-20 17:44 45.80876 4.49566 34059 ft 421 kts 344°
2026-04-20 17:45 45.86650 4.48230 34055 ft 420 kts 344°
2026-04-20 17:45 45.92419 4.46890 34047 ft 418 kts 344°
2026-04-20 17:46 45.98161 4.45544 34042 ft 418 kts 344°
2026-04-20 17:46 46.03900 4.44186 34043 ft 418 kts 344°
2026-04-20 17:47 46.09651 4.42834 34057 ft 419 kts 345°
2026-04-20 17:47 46.15398 4.41490 34054 ft 418 kts 344°
2026-04-20 17:48 46.21145 4.40134 34050 ft 418 kts 344°
2026-04-20 17:48 46.26880 4.38776 34023 ft 418 kts 345°
2026-04-20 17:49 46.32566 4.37162 34054 ft 415 kts 341°
2026-04-20 17:49 46.38148 4.35130 34051 ft 413 kts 340°
2026-04-20 17:50 46.43725 4.33045 34039 ft 414 kts 340°
2026-04-20 17:50 46.49280 4.31059 34057 ft 414 kts 340°
2026-04-20 17:51 46.54878 4.29096 34062 ft 414 kts 340°
2026-04-20 17:51 46.60470 4.27143 34049 ft 413 kts 340°
2026-04-20 17:52 46.66047 4.25177 34050 ft 412 kts 340°
2026-04-20 17:52 46.71615 4.23192 34053 ft 412 kts 340°
2026-04-20 17:53 46.77186 4.21201 34049 ft 412 kts 340°
2026-04-20 17:53 46.82761 4.19219 34050 ft 412 kts 340°
2026-04-20 17:54 46.88336 4.17234 34054 ft 412 kts 340°
2026-04-20 17:54 46.93906 4.15246 34073 ft 412 kts 340°
2026-04-20 17:55 46.99461 4.13259 34071 ft 410 kts 340°
2026-04-20 17:55 47.05004 4.11270 34066 ft 410 kts 340°
2026-04-20 17:56 47.10316 4.08515 34052 ft 404 kts 332°
2026-04-20 17:56 47.15523 4.05431 34067 ft 404 kts 332°
2026-04-20 17:57 47.20735 4.02357 34070 ft 404 kts 332°
2026-04-20 17:57 47.25944 3.99281 34074 ft 403 kts 332°
2026-04-20 17:58 47.31152 3.96191 34073 ft 403 kts 332°
2026-04-20 17:58 47.36343 3.93100 34089 ft 401 kts 332°
2026-04-20 17:59 47.41516 3.90009 34085 ft 401 kts 332°
2026-04-20 17:59 47.46680 3.86910 34077 ft 401 kts 332°
2026-04-20 18:00 47.51853 3.83818 34084 ft 401 kts 332°
2026-04-20 18:00 47.57001 3.80738 34079 ft 403 kts 333°
2026-04-20 18:01 47.62205 3.77612 34062 ft 405 kts 333°
2026-04-20 18:01 47.67436 3.74462 34063 ft 406 kts 333°
2026-04-20 18:02 47.72679 3.71307 34066 ft 407 kts 333°
2026-04-20 18:02 47.77934 3.68127 34076 ft 409 kts 333°
2026-04-20 18:03 47.83211 3.64919 34074 ft 410 kts 333°
2026-04-20 18:03 47.88505 3.61697 34074 ft 412 kts 333°
2026-04-20 18:04 47.93811 3.58468 34081 ft 412 kts 333°
2026-04-20 18:04 47.99123 3.55219 34108 ft 413 kts 334°
2026-04-20 18:05 48.07098 3.50321 34099 ft 413 kts 334°
2026-04-20 18:05 48.12420 3.47042 34105 ft 414 kts 334°
2026-04-20 18:06 48.17744 3.43758 34126 ft 414 kts 334°
2026-04-20 18:06 48.23062 3.40467 34116 ft 413 kts 334°
2026-04-20 18:07 48.28379 3.37168 34123 ft 413 kts 334°
2026-04-20 18:07 48.33694 3.33854 34124 ft 413 kts 334°
2026-04-20 18:08 48.38973 3.30563 34131 ft 414 kts 334°
2026-04-20 18:08 48.44276 3.27236 34155 ft 412 kts 333°
2026-04-20 18:09 48.49579 3.23849 34148 ft 411 kts 333°
2026-04-20 18:09 48.54829 3.20468 34151 ft 410 kts 333°
2026-04-20 18:10 48.60047 3.17126 34153 ft 410 kts 333°
2026-04-20 18:10 48.65288 3.13773 34170 ft 409 kts 333°
2026-04-20 18:11 48.70509 3.10413 34171 ft 407 kts 333°
2026-04-20 18:11 48.75703 3.07063 34169 ft 405 kts 333°
2026-04-20 18:12 48.80893 3.03710 34146 ft 405 kts 333°
2026-04-20 18:12 48.85976 3.00085 34147 ft 402 kts 327°
2026-04-20 18:13 48.90825 2.95838 34149 ft 403 kts 327°
2026-04-20 18:13 48.95691 2.91585 34159 ft 403 kts 327°
2026-04-20 18:14 49.00588 2.87298 34164 ft 404 kts 327°
2026-04-20 18:14 49.05428 2.83052 34197 ft 404 kts 327°
2026-04-20 18:15 49.10318 2.78746 34198 ft 402 kts 327°
2026-04-20 18:15 49.15154 2.74474 34195 ft 401 kts 327°
2026-04-20 18:16 49.19938 2.70235 34193 ft 400 kts 326°
2026-04-20 18:16 49.24747 2.65975 34184 ft 400 kts 326°
2026-04-20 18:17 49.29561 2.61700 34204 ft 400 kts 326°
2026-04-20 18:17 49.34363 2.57425 34202 ft 399 kts 326°
2026-04-20 18:18 49.39154 2.53148 34205 ft 398 kts 326°
2026-04-20 18:18 49.43946 2.48862 34209 ft 398 kts 326°
2026-04-20 18:19 49.48730 2.44571 34207 ft 398 kts 326°
2026-04-20 18:19 49.53517 2.40306 34227 ft 398 kts 327°
2026-04-20 18:20 49.58360 2.36205 34221 ft 397 kts 328°
2026-04-20 18:20 49.63218 2.32160 34217 ft 397 kts 327°
2026-04-20 18:21 49.68059 2.28077 34218 ft 396 kts 327°
2026-04-20 18:21 49.72872 2.23976 34221 ft 396 kts 327°
2026-04-20 18:22 49.77707 2.19848 34221 ft 396 kts 327°
2026-04-20 18:22 49.82522 2.15741 34221 ft 395 kts 327°
2026-04-20 18:23 49.87330 2.11618 34227 ft 395 kts 327°
2026-04-20 18:23 49.92137 2.07491 34226 ft 395 kts 327°
2026-04-20 18:24 49.96910 2.03388 34248 ft 395 kts 327°
2026-04-20 18:24 50.01719 1.99243 34242 ft 395 kts 326°
2026-04-20 18:25 50.06530 1.95084 34239 ft 396 kts 326°
2026-04-20 18:25 50.11340 1.90921 34237 ft 396 kts 326°
2026-04-20 18:26 50.16134 1.86697 34234 ft 394 kts 323°
2026-04-20 18:26 50.20234 1.81175 34244 ft 389 kts 313°
2026-04-20 18:27 50.24108 1.75270 34249 ft 390 kts 313°
2026-04-20 18:27 50.27993 1.69364 34251 ft 390 kts 313°
2026-04-20 18:28 50.31877 1.63440 34256 ft 390 kts 313°
2026-04-20 18:28 50.35754 1.57499 34256 ft 390 kts 313°
2026-04-20 18:29 50.39621 1.51545 34258 ft 390 kts 313°
2026-04-20 18:29 50.43489 1.45580 34284 ft 390 kts 312°
2026-04-20 18:30 50.46700 1.40606 34273 ft 390 kts 312°
2026-04-20 18:30 50.50549 1.34592 34255 ft 390 kts 311°
2026-04-20 18:31 50.54252 1.28361 34254 ft 390 kts 310°
2026-04-20 18:31 50.57892 1.22042 34257 ft 390 kts 310°
2026-04-20 18:32 50.61664 1.15907 34256 ft 390 kts 312°
2026-04-20 18:32 50.65536 1.09901 34291 ft 391 kts 312°
2026-04-20 18:33 50.69401 1.03870 34274 ft 392 kts 312°
2026-04-20 18:33 50.73253 0.97773 34274 ft 392 kts 311°
2026-04-20 18:34 50.77092 0.91647 34246 ft 392 kts 312°
2026-04-20 18:34 50.80929 0.85517 34259 ft 392 kts 312°
2026-04-20 18:35 50.84765 0.79375 34263 ft 392 kts 311°
2026-04-20 18:35 50.88596 0.73235 34292 ft 392 kts 311°
2026-04-20 18:36 50.92431 0.67073 34310 ft 393 kts 311°
2026-04-20 18:36 50.96266 0.60887 34339 ft 394 kts 311°
2026-04-20 18:37 51.00104 0.54689 34368 ft 394 kts 311°
2026-04-20 18:37 51.03938 0.48471 34394 ft 394 kts 311°
2026-04-20 18:38 51.07773 0.42256 34413 ft 394 kts 312°
2026-04-20 18:38 51.11722 0.36198 34423 ft 394 kts 313°
2026-04-20 18:39 51.15710 0.30207 34422 ft 394 kts 313°
2026-04-20 18:39 51.19673 0.24179 34412 ft 394 kts 313°
2026-04-20 18:40 51.23613 0.18126 34387 ft 393 kts 313°
2026-04-20 18:40 51.27553 0.12055 34362 ft 394 kts 313°
2026-04-20 18:41 51.31489 0.05976 34330 ft 393 kts 313°
2026-04-20 18:41 51.33571 0.03126 34132 ft 397 kts 321°
2026-04-20 18:41 51.35890 0.00789 33492 ft 402 kts 324°
2026-04-20 18:42 51.38306 -0.01509 32602 ft 406 kts 324°
2026-04-20 18:42 51.40748 -0.03811 31740 ft 408 kts 324°
2026-04-20 18:42 51.43199 -0.06116 30886 ft 410 kts 324°
2026-04-20 18:42 51.45651 -0.08422 30311 ft 405 kts 324°
2026-04-20 18:43 51.48059 -0.10691 29717 ft 399 kts 324°
2026-04-20 18:43 51.50434 -0.12940 29155 ft 393 kts 324°
2026-04-20 18:43 51.52764 -0.15162 28617 ft 387 kts 324°
2026-04-20 18:43 51.55062 -0.17361 28070 ft 381 kts 324°
2026-04-20 18:44 51.57327 -0.19525 27530 ft 376 kts 324°
2026-04-20 18:44 51.59561 -0.21668 27059 ft 372 kts 324°
2026-04-20 18:44 51.61763 -0.23789 26535 ft 367 kts 324°
2026-04-20 18:44 51.63940 -0.25884 26045 ft 362 kts 324°
2026-04-20 18:45 51.66090 -0.27955 25531 ft 358 kts 324°
2026-04-20 18:45 51.68213 -0.30003 25047 ft 354 kts 324°
2026-04-20 18:45 51.70316 -0.32029 24568 ft 350 kts 324°
2026-04-20 18:45 51.72400 -0.34039 24099 ft 347 kts 324°
2026-04-20 18:46 51.74467 -0.36033 23605 ft 344 kts 324°
2026-04-20 18:46 51.76508 -0.38004 23142 ft 340 kts 324°
2026-04-20 18:46 51.78524 -0.39953 22658 ft 336 kts 325°
2026-04-20 18:46 51.80516 -0.41884 22307 ft 331 kts 325°
2026-04-20 18:47 51.82519 -0.43833 22104 ft 345 kts 326°
2026-04-20 18:47 51.84584 -0.45847 21610 ft 348 kts 326°
2026-04-20 18:47 51.86668 -0.47875 21288 ft 351 kts 326°
2026-04-20 18:47 51.88766 -0.49910 20956 ft 351 kts 327°
2026-04-20 18:48 51.90861 -0.51944 20625 ft 351 kts 327°
2026-04-20 18:48 51.92962 -0.53990 20290 ft 351 kts 327°
2026-04-20 18:48 51.95056 -0.56036 19969 ft 352 kts 327°
2026-04-20 18:48 51.97149 -0.58077 19631 ft 352 kts 327°
2026-04-20 18:49 51.99250 -0.60127 19298 ft 352 kts 328°
2026-04-20 18:49 52.01346 -0.62179 18965 ft 352 kts 328°
2026-04-20 18:49 52.03444 -0.64236 18624 ft 352 kts 328°
2026-04-20 18:49 52.05548 -0.66300 18258 ft 353 kts 328°
2026-04-20 18:50 52.07644 -0.68357 17913 ft 353 kts 328°
2026-04-20 18:50 52.09739 -0.70411 17584 ft 351 kts 328°
2026-04-20 18:50 52.11826 -0.72461 17307 ft 349 kts 328°
2026-04-20 18:50 52.13867 -0.74472 17264 ft 348 kts 328°
2026-04-20 18:51 52.15968 -0.76547 17277 ft 349 kts 328°
2026-04-20 18:51 52.18041 -0.78601 17098 ft 351 kts 328°
2026-04-20 18:51 52.20083 -0.80625 16672 ft 347 kts 328°
2026-04-20 18:51 52.22126 -0.82799 16256 ft 344 kts 321°
2026-04-20 18:52 52.23813 -0.85554 15662 ft 345 kts 309°
2026-04-20 18:52 52.25062 -0.88959 14882 ft 352 kts 294°
2026-04-20 18:52 52.25751 -0.92671 14621 ft 343 kts 283°
2026-04-20 18:52 52.26265 -0.96456 14336 ft 340 kts 284°
2026-04-20 18:53 52.26786 -1.00209 13991 ft 337 kts 284°
2026-04-20 18:53 52.27305 -1.03935 13669 ft 336 kts 284°
2026-04-20 18:53 52.27822 -1.07659 13355 ft 336 kts 284°
2026-04-20 18:53 52.28333 -1.11372 13041 ft 336 kts 284°
2026-04-20 18:54 52.28843 -1.15092 12717 ft 335 kts 284°
2026-04-20 18:54 52.29351 -1.18801 12403 ft 333 kts 284°
2026-04-20 18:54 52.29843 -1.22434 12221 ft 321 kts 285°
2026-04-20 18:54 52.30307 -1.25921 12085 ft 308 kts 285°
2026-04-20 18:55 52.30753 -1.29280 11918 ft 298 kts 285°
2026-04-20 18:55 52.31190 -1.32554 11652 ft 291 kts 283°
2026-04-20 18:55 52.31619 -1.35770 11405 ft 289 kts 284°
2026-04-20 18:55 52.32044 -1.38973 11150 ft 288 kts 285°
2026-04-20 18:56 52.32470 -1.42176 10902 ft 288 kts 284°
2026-04-20 18:56 52.33026 -1.45354 10615 ft 293 kts 298°
2026-04-20 18:56 52.34260 -1.47909 10281 ft 284 kts 324°
2026-04-20 18:56 52.35913 -1.49619 9906 ft 280 kts 330°
2026-04-20 18:57 52.37580 -1.51258 9504 ft 278 kts 331°
2026-04-20 18:57 52.39231 -1.52895 9126 ft 277 kts 330°
2026-04-20 18:57 52.40867 -1.54526 8753 ft 275 kts 330°
2026-04-20 18:57 52.42497 -1.56141 8383 ft 273 kts 331°
2026-04-20 18:58 52.44119 -1.57747 8017 ft 272 kts 330°
2026-04-20 18:58 52.45732 -1.59339 7660 ft 270 kts 331°
2026-04-20 18:58 52.47335 -1.60936 7322 ft 268 kts 330°
2026-04-20 18:58 52.48912 -1.62510 7062 ft 263 kts 330°
2026-04-20 18:59 52.50401 -1.64013 6825 ft 258 kts 330°
2026-04-20 18:59 52.51914 -1.65538 6564 ft 253 kts 331°
2026-04-20 18:59 52.53395 -1.67030 6380 ft 245 kts 331°
2026-04-20 18:59 52.54828 -1.68468 6170 ft 239 kts 330°
2026-04-20 19:00 52.56233 -1.69878 5907 ft 234 kts 331°
2026-04-20 19:00 52.57606 -1.71283 5629 ft 232 kts 331°
2026-04-20 19:00 52.58972 -1.72680 5292 ft 230 kts 330°
2026-04-20 19:00 52.60325 -1.74090 4959 ft 230 kts 330°
2026-04-20 19:01 52.61665 -1.75483 4640 ft 226 kts 329°
2026-04-20 19:01 52.62828 -1.77168 4428 ft 221 kts 308°
2026-04-20 19:01 52.63411 -1.79486 4377 ft 223 kts 280°
2026-04-20 19:01 52.63268 -1.82016 4202 ft 225 kts 249°
2026-04-20 19:02 52.62411 -1.84108 3969 ft 221 kts 222°
2026-04-20 19:02 52.61280 -1.85831 3712 ft 221 kts 220°
2026-04-20 19:02 52.59998 -1.87211 3329 ft 219 kts 198°
2026-04-20 19:02 52.58542 -1.87750 3123 ft 212 kts 178°
2026-04-20 19:03 52.57105 -1.87471 2894 ft 206 kts 159°
2026-04-20 19:03 52.55865 -1.86500 2668 ft 189 kts 142°
2026-04-20 19:03 52.54861 -1.85383 2440 ft 163 kts 141°
2026-04-20 19:03 52.53969 -1.84387 2207 ft 146 kts 140°
2026-04-20 19:04 52.53152 -1.83472 2005 ft 140 kts 140°
2026-04-20 19:04 52.52354 -1.82578 1808 ft 138 kts 140°
2026-04-20 19:04 52.51573 -1.81705 1627 ft 138 kts 140°
2026-04-20 19:04 52.50779 -1.80817 1437 ft 139 kts 141°
2026-04-20 19:05 52.49989 -1.79934 1258 ft 137 kts 140°
2026-04-20 19:05 52.49200 -1.79040 1024 ft 137 kts 141°
2026-04-20 19:05 52.48413 -1.78154 837 ft 138 kts 143°
2026-04-20 19:05 52.47618 -1.77282 664 ft 138 kts 142°
2026-04-20 19:06 52.46824 -1.76409 465 ft 138 kts 141°
2026-04-20 19:06 52.46036 -1.75531 317 ft 136 kts 142°
2026-04-20 19:06 52.45384 -1.74786 325 ft 90 kts 147°
2026-04-20 19:06 52.45005 -1.74378 326 ft 43 kts 145°
2026-04-20 19:07 52.44782 -1.74129 324 ft 35 kts 145°
2026-04-20 19:07 52.44665 -1.73995 325 ft 12 kts 134°
2026-04-20 19:07 52.44680 -1.73869 327 ft 12 kts 57°
2026-04-20 19:07 52.44726 -1.73764 324 ft 10 kts 54°
2026-04-20 19:08 52.44792 -1.73697 324 ft 12 kts 17°
2026-04-20 19:08 52.44967 -1.73670 322 ft 14 kts 326°
2026-04-20 19:08 52.45039 -1.73741 324 ft 11 kts 345°
2026-04-20 19:09 52.45109 -1.73698 324 ft 12 kts 47°
2026-04-20 19:09 52.45151 -1.73598 323 ft 6 kts 56°
2026-04-20 19:09 52.45174 -1.73582 324 ft 3 kts 324°
2026-04-20 19:09 52.45198 -1.73612 322 ft 5 kts 325°
2026-04-20 19:10 52.45218 -1.73634 323 ft 2 kts 326°
2026-04-20 19:10 52.45219 -1.73636 323 ft 0 kts 326°